Weather History for Torrington, WY

Change the Weather History Date:

Saturday, December 15, 2012

  Actual Average Record
Temperature  
Mean Temperature 34 °F 27 °F  
Max Temperature 43 °F 39 °F 67 °F (2006)
Min Temperature 25 °F 14 °F -19 °F (2008)
Degree Days  
Heating Degree Days 31 38  
Month to date heating degree days 433 559  
Since 1 July heating degree days 1776 2142  
Moisture  
Dew Point 21 °F    
Average Humidity 64    
Maximum Humidity 81    
Minimum Humidity 46    
Precipitation  
Precipitation 0.00 in 0.01 in 0.18 in (2010)
Month to date precipitation T 0.20  
Year to date precipitation 7.00 14.04  
Sea Level Pressure  
Sea Level Pressure 29.73 in    
Wind  
Wind Speed 7 mph (NW)    
Max Wind Speed 13 mph    
Max Gust Speed 16 mph    
Visibility 10 miles    
Events      
T = Trace of Precipitation, MM = Missing Value Source: NWS Daily Summary

Daily Weather History Graph

Daily Weather History Graph

Search for Another Location

Airport:

Trip Planner

Search our weather history database for the weather conditions in past years. The results will help you decide how hot, cold, wet, or windy it might be!

Date:

Astronomy

Dec. 15, 2012 Rise Set
Actual Time 7:18 AM MST 4:25 PM MST
Civil Twilight 6:46 AM MST 4:57 PM MST
Nautical Twilight 6:11 AM MST 5:32 PM MST
Astronomical Twilight 5:37 AM MST 6:06 PM MST
Moon 9:10 AM MST (12/15) 7:35 PM MST (12/15)
Length of Visible Light 10h 11m
Length of Day
9h 07m
Waxing Crescent, 9% of the Moon is Illuminated
Dec 15
Waxing Crescent
Dec 19
First Quarter
Dec 28
Full
Jan 4
Last Quarter
Jan 11
New

Hourly Weather History & Observations

Time (MST) Temp. Windchill Dew Point Humidity Pressure Visibility Wind Dir Wind Speed Gust Speed Precip Events Conditions
12:53 AM 30.0 °F 21.7 °F 19.0 °F 64% 29.62 in 10.0 mi WNW 9.2 mph - N/A   Scattered Clouds
1:53 AM 33.1 °F 26.1 °F 19.0 °F 56% 29.61 in 10.0 mi NW 8.1 mph - N/A   Clear
2:53 AM 27.0 °F 19.5 °F 18.0 °F 69% 29.64 in 10.0 mi WNW 6.9 mph - N/A   Clear
3:53 AM 30.0 °F 21.7 °F 18.0 °F 61% 29.65 in 10.0 mi NW 9.2 mph - N/A   Clear
4:53 AM 28.9 °F 19.2 °F 18.0 °F 64% 29.69 in 10.0 mi WNW 11.5 mph - N/A   Clear
5:53 AM 30.0 °F 20.5 °F 19.0 °F 64% 29.72 in 10.0 mi NNW 11.5 mph - N/A   Clear
6:53 AM 26.1 °F 17.6 °F 18.0 °F 71% 29.75 in 10.0 mi WNW 8.1 mph - N/A   Clear
7:53 AM 27.0 °F 23.0 °F 18.0 °F 69% 29.77 in 10.0 mi NW 3.5 mph - N/A   Clear
8:53 AM 30.9 °F 23.5 °F 19.9 °F 64% 29.77 in 10.0 mi NW 8.1 mph - N/A   Clear
9:53 AM 36.0 °F 31.1 °F 23.0 °F 59% 29.77 in 10.0 mi NW 5.8 mph - N/A   Mostly Cloudy
10:53 AM 39.0 °F 32.3 °F 21.9 °F 50% 29.75 in 10.0 mi NW 10.4 mph - N/A   Scattered Clouds
11:53 AM 41.0 °F 36.4 °F 23.0 °F 49% 29.72 in 10.0 mi NW 6.9 mph - N/A   Partly Cloudy
12:53 PM 42.1 °F 38.4 °F 24.1 °F 49% 29.72 in 10.0 mi West 5.8 mph - N/A   Overcast
1:53 PM 42.1 °F 37.1 °F 24.1 °F 49% 29.71 in 10.0 mi WNW 8.1 mph - N/A   Overcast
2:53 PM 41.0 °F 34.3 °F 25.0 °F 53% 29.74 in 10.0 mi NW 11.5 mph - N/A   Partly Cloudy
3:53 PM 37.9 °F 32.7 °F 24.1 °F 57% 29.75 in 10.0 mi NNW 6.9 mph - N/A   Clear
4:53 PM 35.1 °F 30.1 °F 23.0 °F 61% 29.77 in 10.0 mi NNW 5.8 mph - N/A   Overcast
5:53 PM 34.0 °F 28.8 °F 21.9 °F 61% 29.79 in 10.0 mi NE 5.8 mph - N/A   Overcast
6:53 PM 32.0 °F 26.4 °F 21.0 °F 64% 29.81 in 10.0 mi ESE 5.8 mph - N/A   Overcast
7:53 PM 32.0 °F 26.4 °F 21.0 °F 64% 29.79 in 10.0 mi ESE 5.8 mph - N/A   Overcast
8:53 PM 30.9 °F 24.3 °F 19.9 °F 64% 29.76 in 10.0 mi SE 6.9 mph - N/A   Overcast
9:53 PM 27.0 °F 20.5 °F 19.9 °F 75% 29.76 in 10.0 mi SE 5.8 mph - N/A   Clear
10:13 PM 26.6 °F 21.2 °F 19.4 °F 74% 29.69 in 10.0 mi SE 4.6 mph - N/A   Mostly Cloudy
10:23 PM 26.6 °F 19.1 °F 21.2 °F 80% 29.70 in 10.0 mi SE 6.9 mph - N/A   Scattered Clouds
10:53 PM 27.0 °F 20.5 °F 21.0 °F 78% 29.75 in 10.0 mi SE 5.8 mph - N/A   Clear
11:53 PM 26.1 °F 19.4 °F 21.9 °F 84% 29.74 in 10.0 mi SE 5.8 mph - N/A   Clear